Torna al catalogo

STARLINK-31598

AttivoComunicazioniVLEO
NORAD 59263·PAYLOAD·🇺🇸 United States

Lanciato Mar 19, 2024 da Vandenberg Space Force Base

Loading…

Prossimi Passaggi (prossime 24 ore)

TLE

AggiornatoSource: CelesTrak SupGP

Epoca: Sep 14, 2026, 20:56 UTC

1 59263C 24050K   26257.87270833  .00031692  00000+0  93698-3 0  2571
2 59263  53.1589  19.7096 0001336  86.3139 107.6396 15.34353750    12

Traccia STARLINK-31598 in tempo reale con AllMySat

Download on the App Store